BGA243N EGNR-EDHI

Flight info

Callsign BGA243N
Flight time 1h 36m
Altitude 41000
Route WAL UL975 GOLES DCT OTR DCT LONAM DCT AGISU DCT RIBSO
Aircraft A333/H-SDE3GHIJ2J3J5M1RVWXY/LB2D1

Departure

Time 2026-04-28 23:35
Airport Hawarden Airport (EGNR)

Arrival

Time 2026-04-29 01:11
Airport Hamburg-Finkenwerder Airport (EDHI)
Time Latitude Longitude Altitude Speed Heading
2026-04-28 23:15 53.17751 -2.97620 21 ft 0 kts 168°
2026-04-28 23:30 53.17736 -2.97613 32 ft 4 kts 161°
2026-04-28 23:31 53.17726 -2.97620 27 ft 2 kts 204°
2026-04-28 23:31 53.17673 -2.97653 17 ft 9 kts 205°
2026-04-28 23:31 53.17656 -2.97728 18 ft 6 kts 279°
2026-04-28 23:31 53.17677 -2.97792 19 ft 6 kts 311°
2026-04-28 23:32 53.17695 -2.97825 21 ft 1 kts 307°
2026-04-28 23:32 53.17704 -2.97847 24 ft 6 kts 300°
2026-04-28 23:32 53.17687 -2.97958 26 ft 11 kts 234°
2026-04-28 23:32 53.17579 -2.98099 26 ft 29 kts 221°
2026-04-28 23:33 53.17380 -2.98385 30 ft 42 kts 220°
2026-04-28 23:33 53.17220 -2.98625 28 ft 21 kts 238°
2026-04-28 23:33 53.17160 -2.98730 28 ft 2 kts 142°
2026-04-28 23:33 53.17162 -2.98716 28 ft 1 kts 83°
2026-04-28 23:34 53.17183 -2.98676 28 ft 8 kts 44°
2026-04-28 23:34 53.17191 -2.98664 28 ft 0 kts 43°
2026-04-28 23:34 53.17358 -2.98417 29 ft 70 kts 40°
2026-04-28 23:35 53.17916 -2.97619 49 ft 136 kts 38°
2026-04-28 23:35 53.18681 -2.96548 722 ft 147 kts 41°
2026-04-28 23:35 53.19628 -2.96018 1694 ft 156 kts 360°
2026-04-28 23:35 53.20747 -2.96696 2287 ft 190 kts 341°
2026-04-28 23:36 53.22016 -2.97876 2585 ft 227 kts 336°
2026-04-28 23:36 53.23489 -2.99293 2901 ft 259 kts 336°
2026-04-28 23:36 53.25103 -3.00810 3671 ft 269 kts 335°
2026-04-28 23:36 53.26743 -3.02330 4630 ft 270 kts 335°
2026-04-28 23:37 53.28402 -3.03836 5621 ft 272 kts 336°
2026-04-28 23:37 53.30074 -3.05338 6626 ft 274 kts 336°
2026-04-28 23:37 53.31769 -3.06848 7569 ft 278 kts 336°
2026-04-28 23:37 53.33492 -3.08380 8486 ft 283 kts 337°
2026-04-28 23:38 53.35249 -3.09936 9392 ft 288 kts 337°
2026-04-28 23:38 53.37036 -3.11525 10304 ft 293 kts 338°
2026-04-28 23:38 53.38932 -3.12625 10873 ft 296 kts
2026-04-28 23:38 53.40961 -3.12065 11245 ft 300 kts 30°
2026-04-28 23:39 53.42531 -3.09828 11888 ft 298 kts 58°
2026-04-28 23:39 53.43219 -3.06584 12619 ft 301 kts 85°
2026-04-28 23:39 53.42990 -3.03080 13400 ft 306 kts 101°
2026-04-28 23:39 53.42461 -2.99594 14190 ft 309 kts 101°
2026-04-28 23:40 53.42054 -2.96040 14866 ft 311 kts 95°
2026-04-28 23:40 53.41906 -2.92408 15554 ft 313 kts 89°
2026-04-28 23:40 53.42006 -2.88757 16241 ft 315 kts 83°
2026-04-28 23:40 53.42288 -2.85108 16924 ft 317 kts 80°
2026-04-28 23:41 53.42670 -2.81506 17586 ft 319 kts 78°
2026-04-28 23:41 53.43108 -2.77832 18255 ft 322 kts 78°
2026-04-28 23:41 53.43559 -2.74145 18884 ft 325 kts 78°
2026-04-28 23:41 53.44009 -2.70408 19430 ft 328 kts 78°
2026-04-28 23:42 53.44449 -2.66649 19976 ft 330 kts 78°
2026-04-28 23:42 53.44882 -2.62845 20520 ft 333 kts 79°
2026-04-28 23:42 53.45308 -2.59011 21043 ft 335 kts 79°
2026-04-28 23:42 53.45730 -2.55162 21576 ft 337 kts 79°
2026-04-28 23:43 53.46152 -2.51274 22093 ft 339 kts 79°
2026-04-28 23:43 53.46575 -2.47370 22601 ft 341 kts 79°
2026-04-28 23:43 53.46999 -2.43449 23103 ft 343 kts 79°
2026-04-28 23:43 53.47426 -2.39489 23569 ft 345 kts 79°
2026-04-28 23:44 53.47855 -2.35502 24035 ft 347 kts 79°
2026-04-28 23:44 53.48279 -2.31556 24416 ft 349 kts 79°
2026-04-28 23:44 53.48709 -2.27533 24831 ft 349 kts 79°
2026-04-28 23:44 53.49136 -2.23529 25348 ft 347 kts 79°
2026-04-28 23:45 53.49558 -2.19556 25870 ft 344 kts 79°
2026-04-28 23:45 53.49975 -2.15618 26360 ft 342 kts 79°
2026-04-28 23:45 53.50390 -2.11693 26859 ft 340 kts 79°
2026-04-28 23:45 53.50800 -2.07791 27354 ft 338 kts 79°
2026-04-28 23:46 53.51208 -2.03901 27797 ft 338 kts 79°
2026-04-28 23:46 53.51615 -2.00008 28214 ft 337 kts 79°
2026-04-28 23:46 53.52020 -1.96130 28686 ft 336 kts 79°
2026-04-28 23:46 53.52420 -1.92272 29165 ft 334 kts 79°
2026-04-28 23:47 53.52816 -1.88444 29652 ft 331 kts 79°
2026-04-28 23:47 53.53203 -1.84692 30128 ft 330 kts 79°
2026-04-28 23:47 53.53593 -1.80904 30598 ft 328 kts 79°
2026-04-28 23:47 53.53981 -1.77120 30996 ft 327 kts 79°
2026-04-28 23:48 53.54365 -1.73361 31387 ft 325 kts 78°
2026-04-28 23:48 53.54746 -1.69626 31770 ft 323 kts 78°
2026-04-28 23:48 53.55125 -1.65895 32145 ft 322 kts 78°
2026-04-28 23:48 53.55500 -1.62193 32516 ft 321 kts 78°
2026-04-28 23:49 53.55873 -1.58497 32874 ft 320 kts 78°
2026-04-28 23:49 53.56243 -1.54818 33231 ft 318 kts 78°
2026-04-28 23:49 53.56612 -1.51133 33467 ft 320 kts 78°
2026-04-28 23:49 53.56982 -1.47434 33723 ft 321 kts 78°
2026-04-28 23:50 53.57350 -1.43737 34065 ft 320 kts 78°
2026-04-28 23:50 53.57715 -1.40052 34399 ft 318 kts 78°
2026-04-28 23:50 53.58078 -1.36382 34665 ft 318 kts 78°
2026-04-28 23:50 53.58440 -1.32709 34870 ft 319 kts 78°
2026-04-28 23:51 53.58803 -1.29017 35064 ft 320 kts 78°
2026-04-28 23:51 53.59165 -1.25325 35268 ft 320 kts 78°
2026-04-28 23:51 53.59528 -1.21615 35458 ft 321 kts 78°
2026-04-28 23:51 53.59884 -1.17956 35648 ft 322 kts 78°
2026-04-28 23:52 53.60245 -1.14235 35830 ft 322 kts 78°
2026-04-28 23:52 53.60606 -1.10500 36021 ft 323 kts 78°
2026-04-28 23:52 53.60966 -1.06760 36204 ft 324 kts 78°
2026-04-28 23:52 53.61326 -1.03013 36396 ft 325 kts 79°
2026-04-28 23:53 53.61686 -0.99253 36527 ft 327 kts 79°
2026-04-28 23:53 53.62046 -0.95475 36679 ft 328 kts 79°
2026-04-28 23:53 53.62407 -0.91674 36863 ft 328 kts 79°
2026-04-28 23:53 53.62766 -0.87872 37019 ft 329 kts 79°
2026-04-28 23:54 53.63125 -0.84064 37184 ft 329 kts 79°
2026-04-28 23:54 53.63483 -0.80252 37339 ft 330 kts 79°
2026-04-28 23:54 53.63842 -0.76416 37513 ft 331 kts 79°
2026-04-28 23:54 53.64200 -0.72586 37654 ft 331 kts 79°
2026-04-28 23:55 53.64556 -0.68750 37814 ft 332 kts 79°
2026-04-28 23:55 53.64912 -0.64907 37982 ft 332 kts 79°
2026-04-28 23:55 53.65268 -0.61060 38121 ft 333 kts 79°
2026-04-28 23:55 53.65622 -0.57201 38291 ft 333 kts 79°
2026-04-28 23:56 53.65976 -0.53340 38412 ft 334 kts 79°
2026-04-28 23:56 53.66330 -0.49466 38556 ft 334 kts 79°
2026-04-28 23:56 53.66683 -0.45587 38706 ft 335 kts 79°
2026-04-28 23:56 53.67034 -0.41708 38847 ft 335 kts 79°
2026-04-28 23:57 53.67385 -0.37816 38977 ft 336 kts 80°
2026-04-28 23:57 53.67736 -0.33919 39103 ft 336 kts 80°
2026-04-28 23:57 53.68430 -0.26156 39301 ft 337 kts 80°
2026-04-28 23:58 53.68778 -0.22241 39403 ft 337 kts 80°
2026-04-28 23:58 53.69126 -0.18316 39482 ft 338 kts 80°
2026-04-28 23:58 53.69807 -0.10448 39649 ft 339 kts 81°
2026-04-28 23:59 53.70287 -0.02551 39820 ft 340 kts 83°
2026-04-28 23:59 53.70665 0.05409 40021 ft 340 kts 83°
2026-04-29 00:00 53.71041 0.13382 40179 ft 341 kts 83°
2026-04-29 00:00 53.71429 0.21372 40326 ft 342 kts 83°
2026-04-29 00:01 53.71821 0.29385 40464 ft 343 kts 83°
2026-04-29 00:01 53.72210 0.37421 40598 ft 343 kts 83°
2026-04-29 00:02 53.72590 0.45417 40732 ft 344 kts 83°
2026-04-29 00:02 53.72881 0.53498 40825 ft 346 kts 87°
2026-04-29 00:03 53.73141 0.61635 40914 ft 347 kts 86°
2026-04-29 00:03 53.73468 0.69759 41027 ft 347 kts 86°
2026-04-29 00:04 53.73831 0.77908 41129 ft 347 kts 85°
2026-04-29 00:04 53.74196 0.86042 41230 ft 347 kts 85°
2026-04-29 00:05 53.74555 0.94186 41341 ft 347 kts 85°
2026-04-29 00:05 53.74904 1.02294 41425 ft 348 kts 85°
2026-04-29 00:06 53.75249 1.10487 41439 ft 351 kts 85°
2026-04-29 00:06 53.75591 1.18758 41441 ft 354 kts 86°
2026-04-29 00:07 53.75871 1.25691 41437 ft 357 kts 86°
2026-04-29 00:07 53.76260 1.35507 41437 ft 359 kts 86°
2026-04-29 00:08 53.76586 1.43867 41437 ft 358 kts 86°
2026-04-29 00:08 53.76858 1.50902 41435 ft 358 kts 86°
2026-04-29 00:09 53.77179 1.59311 41439 ft 358 kts 86°
2026-04-29 00:09 53.77491 1.67669 41435 ft 359 kts 86°
2026-04-29 00:10 53.77799 1.76093 41434 ft 359 kts 86°
2026-04-29 00:10 53.78100 1.84525 41434 ft 359 kts 86°
2026-04-29 00:11 53.78396 1.92959 41432 ft 359 kts 86°
2026-04-29 00:12 53.78830 2.05605 41431 ft 359 kts 86°
2026-04-29 00:12 53.79111 2.13980 41424 ft 359 kts 86°
2026-04-29 00:13 53.79388 2.22445 41426 ft 360 kts 86°
2026-04-29 00:13 53.79658 2.30904 41416 ft 360 kts 86°
2026-04-29 00:14 53.79923 2.39378 41418 ft 360 kts 86°
2026-04-29 00:14 53.80180 2.47802 41419 ft 360 kts 86°
2026-04-29 00:15 53.80434 2.56273 41416 ft 360 kts 86°
2026-04-29 00:15 53.80681 2.64741 41421 ft 361 kts 86°
2026-04-29 00:16 53.80924 2.73230 41403 ft 361 kts 86°
2026-04-29 00:16 53.81159 2.81722 41410 ft 361 kts 86°
2026-04-29 00:17 53.81389 2.90220 41418 ft 361 kts 86°
2026-04-29 00:17 53.81612 2.98713 41422 ft 361 kts 87°
2026-04-29 00:18 53.81830 3.07223 41425 ft 361 kts 87°
2026-04-29 00:18 53.82041 3.15674 41441 ft 362 kts 86°
2026-04-29 00:19 53.82248 3.24199 41437 ft 362 kts 87°
2026-04-29 00:19 53.82448 3.32727 41441 ft 363 kts 87°
2026-04-29 00:20 53.82642 3.41257 41429 ft 363 kts 87°
2026-04-29 00:20 53.82830 3.49793 41436 ft 363 kts 87°
2026-04-29 00:21 53.83013 3.58331 41436 ft 363 kts 87°
2026-04-29 00:21 53.83189 3.66871 41444 ft 363 kts 87°
2026-04-29 00:22 53.83360 3.75419 41437 ft 364 kts 87°
2026-04-29 00:22 53.83525 3.83996 41435 ft 364 kts 87°
2026-04-29 00:23 53.83682 3.92520 41435 ft 364 kts 87°
2026-04-29 00:23 53.83879 4.01094 41440 ft 364 kts 86°
2026-04-29 00:24 53.84109 4.09671 41421 ft 364 kts 86°
2026-04-29 00:24 53.84335 4.18190 41436 ft 364 kts 86°
2026-04-29 00:25 53.84552 4.26766 41436 ft 365 kts 86°
2026-04-29 00:25 53.84758 4.35355 41436 ft 365 kts 86°
2026-04-29 00:26 53.84958 4.43966 41437 ft 365 kts 86°
2026-04-29 00:26 53.85152 4.52572 41436 ft 365 kts 86°
2026-04-29 00:27 53.85341 4.61176 41439 ft 365 kts 86°
2026-04-29 00:27 53.85522 4.69732 41436 ft 365 kts 87°
2026-04-29 00:28 53.85699 4.78350 41438 ft 365 kts 87°
2026-04-29 00:28 53.85869 4.86956 41437 ft 365 kts 87°
2026-04-29 00:29 53.86033 4.95558 41436 ft 365 kts 87°
2026-04-29 00:29 53.86190 5.04172 41439 ft 366 kts 87°
2026-04-29 00:30 53.86342 5.12779 41438 ft 366 kts 87°
2026-04-29 00:30 53.86487 5.21394 41439 ft 365 kts 87°
2026-04-29 00:31 53.86626 5.29957 41432 ft 366 kts 87°
2026-04-29 00:31 53.86759 5.38605 41430 ft 367 kts 87°
2026-04-29 00:32 53.86885 5.47264 41428 ft 367 kts 87°
2026-04-29 00:32 53.87006 5.55910 41430 ft 367 kts 87°
2026-04-29 00:33 53.87120 5.64548 41432 ft 366 kts 87°
2026-04-29 00:33 53.87228 5.73167 41428 ft 366 kts 87°
2026-04-29 00:34 53.87331 5.81806 41430 ft 367 kts 87°
2026-04-29 00:34 53.87429 5.90470 41424 ft 368 kts 87°
2026-04-29 00:35 53.87519 5.99123 41424 ft 369 kts 87°
2026-04-29 00:35 53.87603 6.07837 41425 ft 368 kts 87°
2026-04-29 00:36 53.87679 6.16522 41425 ft 368 kts 87°
2026-04-29 00:36 53.87750 6.25211 41425 ft 368 kts 87°
2026-04-29 00:37 53.87817 6.33901 41426 ft 369 kts 87°
2026-04-29 00:37 53.87879 6.42562 41477 ft 368 kts 87°
2026-04-29 00:37 53.87905 6.46853 41353 ft 360 kts 87°
2026-04-29 00:38 53.87921 6.51085 40933 ft 358 kts 88°
2026-04-29 00:38 53.87910 6.55302 40513 ft 356 kts 88°
2026-04-29 00:38 53.87879 6.59493 40096 ft 355 kts 88°
2026-04-29 00:38 53.87835 6.63615 39669 ft 353 kts 88°
2026-04-29 00:39 53.87782 6.67770 39252 ft 352 kts 88°
2026-04-29 00:39 53.87725 6.71895 38747 ft 350 kts 88°
2026-04-29 00:39 53.87665 6.76016 38242 ft 348 kts 88°
2026-04-29 00:39 53.87602 6.80098 37756 ft 345 kts 88°
2026-04-29 00:40 53.87538 6.84143 37275 ft 343 kts 88°
2026-04-29 00:40 53.87474 6.88175 36736 ft 342 kts 88°
2026-04-29 00:40 53.87407 6.92181 36250 ft 339 kts 88°
2026-04-29 00:40 53.87341 6.96138 35695 ft 333 kts 87°
2026-04-29 00:41 53.87277 7.00031 34973 ft 328 kts 87°
2026-04-29 00:41 53.87236 7.02582 34543 ft 324 kts 86°
2026-04-29 00:41 53.87151 7.07595 33733 ft 312 kts 86°
2026-04-29 00:41 53.87089 7.11245 33155 ft 312 kts 86°
2026-04-29 00:42 53.87030 7.14971 32874 ft 320 kts 86°
2026-04-29 00:42 53.86963 7.18772 32619 ft 325 kts 86°
2026-04-29 00:42 53.86889 7.22532 32380 ft 312 kts 86°
2026-04-29 00:42 53.86817 7.26164 31984 ft 311 kts 86°
2026-04-29 00:43 53.86748 7.29852 31666 ft 314 kts 86°
2026-04-29 00:43 53.86670 7.33550 31292 ft 314 kts 86°
2026-04-29 00:43 53.86591 7.37243 30910 ft 314 kts 86°
2026-04-29 00:43 53.86514 7.40962 30504 ft 316 kts 86°
2026-04-29 00:44 53.86437 7.44646 30059 ft 318 kts 86°
2026-04-29 00:44 53.86358 7.48408 29651 ft 320 kts 86°
2026-04-29 00:44 53.86277 7.52185 29243 ft 322 kts 86°
2026-04-29 00:44 53.86196 7.55987 28810 ft 324 kts 86°
2026-04-29 00:45 53.86115 7.59812 28377 ft 326 kts 87°
2026-04-29 00:45 53.86031 7.63664 27933 ft 328 kts 87°
2026-04-29 00:45 53.85944 7.67535 27484 ft 330 kts 87°
2026-04-29 00:45 53.85855 7.71432 27027 ft 332 kts 88°
2026-04-29 00:46 53.85763 7.75356 26550 ft 335 kts 88°
2026-04-29 00:46 53.85669 7.79308 26072 ft 337 kts 88°
2026-04-29 00:46 53.85573 7.83286 25579 ft 339 kts 88°
2026-04-29 00:46 53.85475 7.87299 25102 ft 342 kts 88°
2026-04-29 00:47 53.85376 7.91288 24560 ft 344 kts 88°
2026-04-29 00:47 53.85274 7.95351 24128 ft 346 kts 88°
2026-04-29 00:47 53.85171 7.99428 23754 ft 346 kts 89°
2026-04-29 00:47 53.85065 8.03501 23378 ft 345 kts 89°
2026-04-29 00:48 53.84960 8.07551 23010 ft 344 kts 89°
2026-04-29 00:48 53.84855 8.11584 22645 ft 343 kts 89°
2026-04-29 00:48 53.84749 8.15621 22290 ft 341 kts 89°
2026-04-29 00:48 53.84642 8.19640 21914 ft 340 kts 89°
2026-04-29 00:49 53.84535 8.23643 21572 ft 339 kts 89°
2026-04-29 00:49 53.84428 8.27581 21206 ft 338 kts 89°
2026-04-29 00:49 53.84320 8.31552 20833 ft 337 kts 89°
2026-04-29 00:49 53.84210 8.35513 20474 ft 336 kts 89°
2026-04-29 00:50 53.84099 8.39470 20136 ft 335 kts 89°
2026-04-29 00:50 53.83987 8.43418 19766 ft 335 kts 89°
2026-04-29 00:50 53.83875 8.47358 19391 ft 335 kts 90°
2026-04-29 00:50 53.83760 8.51296 19031 ft 334 kts 90°
2026-04-29 00:51 53.83644 8.55234 18647 ft 333 kts 90°
2026-04-29 00:51 53.83528 8.59153 18253 ft 332 kts 90°
2026-04-29 00:51 53.83410 8.63046 17883 ft 330 kts 90°
2026-04-29 00:51 53.83293 8.66925 17520 ft 329 kts 90°
2026-04-29 00:52 53.83174 8.70779 17160 ft 327 kts 90°
2026-04-29 00:52 53.83055 8.74619 16807 ft 326 kts 90°
2026-04-29 00:52 53.82935 8.78444 16436 ft 324 kts 91°
2026-04-29 00:52 53.82817 8.82204 16078 ft 322 kts 91°
2026-04-29 00:53 53.82696 8.85991 15731 ft 321 kts 91°
2026-04-29 00:53 53.82574 8.89750 15360 ft 319 kts 91°
2026-04-29 00:53 53.82452 8.93497 15021 ft 318 kts 91°
2026-04-29 00:53 53.82329 8.97235 14656 ft 317 kts 91°
2026-04-29 00:54 53.82247 8.99700 14415 ft 316 kts 91°
2026-04-29 00:54 53.82124 9.03412 14041 ft 315 kts 91°
2026-04-29 00:54 53.81999 9.07102 13668 ft 313 kts 91°
2026-04-29 00:54 53.81875 9.10762 13311 ft 310 kts 91°
2026-04-29 00:55 53.81750 9.14398 12957 ft 308 kts 91°
2026-04-29 00:55 53.81625 9.18007 12604 ft 306 kts 91°
2026-04-29 00:55 53.81500 9.21588 12262 ft 303 kts 91°
2026-04-29 00:55 53.81375 9.25144 11917 ft 301 kts 92°
2026-04-29 00:56 53.81250 9.28669 11568 ft 299 kts 92°
2026-04-29 00:56 53.81049 9.32171 11256 ft 304 kts 98°
2026-04-29 00:56 53.80352 9.35643 11047 ft 320 kts 116°
2026-04-29 00:56 53.79209 9.38786 10868 ft 305 kts 122°
2026-04-29 00:57 53.78038 9.41657 10627 ft 289 kts 124°
2026-04-29 00:57 53.76719 9.44141 10395 ft 282 kts 139°
2026-04-29 00:57 53.75008 9.45677 10098 ft 279 kts 163°
2026-04-29 00:57 53.73123 9.45920 9831 ft 275 kts 188°
2026-04-29 00:58 53.71340 9.44915 9549 ft 269 kts 208°
2026-04-29 00:58 53.69609 9.43725 9263 ft 269 kts 191°
2026-04-29 00:58 53.67766 9.43726 9031 ft 264 kts 170°
2026-04-29 00:58 53.65973 9.44317 8797 ft 261 kts 166°
2026-04-29 00:59 53.64210 9.45014 8567 ft 259 kts 165°
2026-04-29 00:59 53.62459 9.45723 8342 ft 258 kts 165°
2026-04-29 00:59 53.60717 9.46425 8110 ft 257 kts 165°
2026-04-29 00:59 53.58980 9.47119 7890 ft 256 kts 165°
2026-04-29 01:00 53.57269 9.47798 7665 ft 255 kts 165°
2026-04-29 01:00 53.55547 9.48482 7441 ft 253 kts 165°
2026-04-29 01:00 53.53833 9.49161 7225 ft 252 kts 165°
2026-04-29 01:00 53.52123 9.49813 6992 ft 252 kts 168°
2026-04-29 01:01 53.50377 9.49831 6777 ft 253 kts 194°
2026-04-29 01:01 53.48869 9.48361 6534 ft 253 kts 225°
2026-04-29 01:01 53.47684 9.46156 6292 ft 255 kts 232°
2026-04-29 01:01 53.46564 9.43844 6073 ft 255 kts 233°
2026-04-29 01:02 53.45452 9.41540 5853 ft 254 kts 232°
2026-04-29 01:02 53.44348 9.39288 5614 ft 252 kts 232°
2026-04-29 01:02 53.43128 9.37137 5399 ft 251 kts 218°
2026-04-29 01:02 53.41587 9.35951 5181 ft 246 kts 188°
2026-04-29 01:03 53.39931 9.36193 4993 ft 238 kts 157°
2026-04-29 01:03 53.38550 9.37574 4786 ft 227 kts 141°
2026-04-29 01:03 53.37337 9.39240 4429 ft 224 kts 138°
2026-04-29 01:03 53.36245 9.41080 4037 ft 222 kts 126°
2026-04-29 01:04 53.35748 9.43471 3753 ft 220 kts 91°
2026-04-29 01:04 53.36039 9.45962 3589 ft 219 kts 71°
2026-04-29 01:04 53.36757 9.48205 3391 ft 219 kts 58°
2026-04-29 01:04 53.37672 9.50233 3195 ft 218 kts 56°
2026-04-29 01:05 53.38584 9.52236 3006 ft 215 kts 56°
2026-04-29 01:05 53.39486 9.54172 2985 ft 202 kts 55°
2026-04-29 01:05 53.40342 9.55935 2975 ft 190 kts 54°
2026-04-29 01:05 53.41177 9.57625 2985 ft 187 kts 54°
2026-04-29 01:06 53.42002 9.59302 2984 ft 184 kts 54°
2026-04-29 01:06 53.42769 9.60858 3014 ft 168 kts 55°
2026-04-29 01:06 53.43462 9.62308 2991 ft 151 kts 56°
2026-04-29 01:06 53.44069 9.63578 2981 ft 129 kts 56°
2026-04-29 01:07 53.44618 9.64707 2794 ft 122 kts 56°
2026-04-29 01:07 53.45142 9.65821 2547 ft 120 kts 58°
2026-04-29 01:07 53.45662 9.66934 2375 ft 122 kts 58°
2026-04-29 01:07 53.46185 9.68041 2215 ft 120 kts 57°
2026-04-29 01:08 53.46706 9.69137 2070 ft 120 kts 57°
2026-04-29 01:08 53.47221 9.70224 1893 ft 119 kts 57°
2026-04-29 01:08 53.47735 9.71314 1730 ft 120 kts 57°
2026-04-29 01:08 53.48251 9.72399 1552 ft 119 kts 57°
2026-04-29 01:09 53.48764 9.73485 1408 ft 119 kts 57°
2026-04-29 01:09 53.49277 9.74567 1217 ft 118 kts 57°
2026-04-29 01:09 53.49786 9.75642 1064 ft 118 kts 57°
2026-04-29 01:09 53.50289 9.76705 864 ft 118 kts 56°
2026-04-29 01:10 53.50743 9.77664 752 ft 118 kts 55°
2026-04-29 01:10 53.51248 9.78737 602 ft 117 kts 55°
2026-04-29 01:10 53.51759 9.79803 399 ft 117 kts 53°
2026-04-29 01:10 53.52267 9.80867 221 ft 117 kts 54°
2026-04-29 01:11 53.52777 9.81938 56 ft 117 kts 54°
2026-04-29 01:11 53.53122 9.82674 28 ft 104 kts 52°
2026-04-29 01:11 53.53293 9.83041 27 ft 80 kts 52°
2026-04-29 01:11 53.53502 9.83481 31 ft 39 kts 51°
2026-04-29 01:12 53.53612 9.83693 30 ft 22 kts 39°
2026-04-29 01:12 53.53689 9.83703 29 ft 6 kts 344°
2026-04-29 01:12 53.53735 9.83684 27 ft 6 kts 341°
2026-04-29 01:12 53.53771 9.83650 27 ft 5 kts 306°
2026-04-29 01:13 53.53771 9.83594 27 ft 5 kts 250°
2026-04-29 01:13 53.53753 9.83525 27 ft 5 kts 226°
2026-04-29 01:13 53.53716 9.83491 27 ft 7 kts 214°
2026-04-29 01:13 53.53682 9.83450 26 ft 0 kts 219°
2026-04-29 01:15 53.53679 9.83446 26 ft 0 kts 219°